Location: Il Ritiro
(43.4167°N, 13.1333°E)
Time: 17:02:58
(UTC+00:00)

Cosmos 2219 Rocket - Pass Details

Date: 05 July 2020
Orbit: 827 x 848 km, 71.0° (Epoch: 11 August)

Event Time Altitude Azimuth Distance (km) Brightness Sun altitude
Rises 22:13:45 0° 244° (WSW) 3,359 5.2 -22.6°
Reaches altitude 10° 22:16:42 10° 259° (W) 2,432 4.6 -22.7°
Maximum altitude 22:21:01 23° 310° (NW) 1,721 4.4 -22.9°
Drops below altitude 10° 22:25:22 10° 1° (N) 2,450 5.7 -23.0°
Sets 22:28:22 0° 16° (NNE) 3,392 6.4 -23.2°
